| time (UTC) | temp F | wind direction | speed MPH | gust MPH | rain 1hr in | rain 24hr in | rain mn in | humidity % | barometer mb |
| 20260508054349 | 52 | 45 | 4.0 | 6.0 | 0.00 | 0.00 | 0.00 | 78 | 1011.3 |
| 20260508053852 | 52 | 44 | 4.0 | 6.0 | 0.00 | 0.00 | 0.00 | 78 | 1011.2 |
| 20260508052859 | 52 | 45 | 4.0 | 7.0 | 0.00 | 0.00 | 0.00 | 78 | 1011.4 |
| 20260508052343 | 52 | 44 | 5.0 | 7.0 | 0.00 | 0.00 | 0.00 | 78 | 1011.4 |
| 20260508051844 | 52 | 29 | 3.0 | 5.0 | 0.00 | 0.00 | 0.00 | 79 | 1011.4 |
| 20260508051345 | 52 | 29 | 2.0 | 4.0 | 0.00 | 0.00 | 0.00 | 78 | 1011.5 |
| 20260508050850 | 52 | 29 | 3.0 | 4.0 | 0.00 | 0.00 | 0.00 | 78 | 1011.5 |
| 20260508050350 | 52 | 29 | 2.0 | 6.0 | 0.00 | 0.00 | 0.00 | 77 | 1011.4 |
| 20260508045851 | 52 | 29 | 3.0 | 6.0 | 0.00 | 0.00 | 0.00 | 77 | 1011.4 |
| 20260508044854 | 52 | 27 | 1.0 | 6.0 | 0.00 | 0.00 | 0.00 | 78 | 1011.4 |
| 20260508044354 | 52 | 27 | 1.0 | 6.0 | 0.00 | 0.00 | 0.00 | 78 | 1011.6 |
| 20260508043856 | 52 | 26 | 0.0 | 4.0 | 0.00 | 0.00 | 0.00 | 79 | 1011.5 |
| 20260508042350 | 52 | 10 | 2.0 | 3.0 | 0.00 | 0.00 | 0.00 | 79 | 1011.3 |
| 20260508041854 | 52 | 10 | 1.0 | 4.0 | 0.00 | 0.00 | 0.00 | 79 | 1011.3 |
| 20260508041354 | 52 | 10 | 1.0 | 5.0 | 0.00 | 0.00 | 0.00 | 79 | 1011.1 |
| 20260508040852 | 52 | 9 | 3.0 | 6.0 | 0.00 | 0.00 | 0.00 | 79 | 1011.1 |
| 20260508040357 | 52 | 9 | 4.0 | 6.0 | 0.00 | 0.00 | 0.00 | 80 | 1011.1 |
| 20260508035857 | 52 | 14 | 3.0 | 4.0 | 0.00 | 0.00 | 0.00 | 80 | 1011.1 |
| 20260508035359 | 51 | 14 | 1.0 | 4.0 | 0.00 | 0.00 | 0.00 | 80 | 1011.1 |
| 20260508034901 | 51 | 14 | 2.0 | 4.0 | 0.00 | 0.00 | 0.00 | 81 | 1011.0 |
| 20260508034402 | 51 | 14 | 2.0 | 4.0 | 0.00 | 0.00 | 0.00 | 81 | 1011.0 |
| 20260508033842 | 51 | 14 | 3.0 | 4.0 | 0.00 | 0.00 | 0.00 | 81 | 1010.9 |
| 20260508032845 | 51 | 14 | 3.0 | 4.0 | 0.00 | 0.00 | 0.00 | 81 | 1011.1 |
| 20260508031854 | 51 | 14 | 2.0 | 5.0 | 0.00 | 0.00 | 0.00 | 82 | 1011.2 |
| 20260508031353 | 50 | 14 | 2.0 | 5.0 | 0.00 | 0.00 | 0.00 | 82 | 1011.2 |
| 20260508030357 | 50 | 14 | 3.0 | 4.0 | 0.00 | 0.00 | 0.00 | 82 | 1011.1 |
| 20260508025858 | 50 | 14 | 2.0 | 5.0 | 0.00 | 0.00 | 0.00 | 82 | 1011.1 |
| 20260508025358 | 50 | 14 | 3.0 | 5.0 | 0.00 | 0.00 | 0.00 | 82 | 1011.0 |
| 20260508024902 | 50 | 14 | 3.0 | 5.0 | 0.00 | 0.00 | 0.00 | 82 | 1011.0 |
| 20260508024401 | 50 | 13 | 4.0 | 5.0 | 0.00 | 0.00 | 0.00 | 82 | 1011.0 |
| 20260508023902 | 50 | 13 | 3.0 | 5.0 | 0.00 | 0.00 | 0.00 | 82 | 1011.0 |
| 20260508023401 | 50 | 13 | 4.0 | 5.0 | 0.00 | 0.00 | 0.00 | 82 | 1011.0 |
| 20260508022844 | 50 | 14 | 3.0 | 6.0 | 0.00 | 0.00 | 0.00 | 82 | 1011.0 |
| 20260508022345 | 50 | 15 | 4.0 | 7.0 | 0.00 | 0.00 | 0.00 | 82 | 1011.0 |
| 20260508021845 | 50 | 12 | 4.0 | 7.0 | 0.00 | 0.00 | 0.00 | 82 | 1011.0 |
| 20260508021346 | 50 | 16 | 4.0 | 8.0 | 0.00 | 0.00 | 0.00 | 82 | 1010.9 |
| 20260508020848 | 50 | 22 | 5.0 | 8.0 | 0.00 | 0.00 | 0.00 | 82 | 1010.9 |
| 20260508020347 | 50 | 16 | 5.0 | 8.0 | 0.00 | 0.00 | 0.00 | 82 | 1011.0 |
| 20260508015850 | 50 | 17 | 3.0 | 7.0 | 0.00 | 0.00 | 0.00 | 82 | 1011.1 |
| 20260508015350 | 50 | 30 | 4.0 | 8.0 | 0.00 | 0.00 | 0.00 | 82 | 1011.0 |
| 20260508014853 | 50 | 31 | 6.0 | 10.0 | 0.00 | 0.00 | 0.00 | 82 | 1011.1 |
| 20260508014359 | 50 | 35 | 5.0 | 10.0 | 0.00 | 0.00 | 0.00 | 82 | 1011.1 |
| 20260508013902 | 50 | 39 | 7.0 | 9.0 | 0.00 | 0.00 | 0.00 | 82 | 1011.2 |
| 20260508013344 | 50 | 43 | 6.0 | 9.0 | 0.00 | 0.00 | 0.00 | 81 | 1011.3 |
| 20260508012846 | 51 | 53 | 5.0 | 7.0 | 0.00 | 0.00 | 0.00 | 81 | 1011.5 |
| 20260508012347 | 51 | 30 | 4.0 | 7.0 | 0.00 | 0.00 | 0.00 | 81 | 1011.6 |
| 20260508011354 | 51 | 20 | 5.0 | 8.0 | 0.00 | 0.00 | 0.00 | 81 | 1011.5 |
| 20260508010858 | 50 | 20 | 5.0 | 7.0 | 0.00 | 0.00 | 0.00 | 82 | 1011.5 |
| 20260508005841 | 50 | 15 | 4.0 | 6.0 | 0.00 | 0.00 | 0.00 | 81 | 1011.6 |
| 20260508005343 | 50 | 14 | 4.0 | 6.0 | 0.00 | 0.00 | 0.00 | 81 | 1011.6 |
| 20260508004846 | 51 | 13 | 4.0 | 5.0 | 0.00 | 0.00 | 0.00 | 80 | 1011.7 |
| 20260508004347 | 51 | 11 | 3.0 | 5.0 | 0.00 | 0.00 | 0.00 | 80 | 1011.8 |
| 20260508003848 | 51 | 11 | 3.0 | 7.0 | 0.00 | 0.00 | 0.00 | 80 | 1011.9 |
| 20260508003348 | 51 | 11 | 4.0 | 7.0 | 0.00 | 0.00 | 0.00 | 80 | 1011.8 |
| 20260508002849 | 51 | 15 | 5.0 | 6.0 | 0.00 | 0.00 | 0.00 | 80 | 1011.9 |
| 20260508002352 | 51 | 16 | 4.0 | 6.0 | 0.00 | 0.00 | 0.00 | 79 | 1012.0 |
| 20260508001853 | 51 | 17 | 4.0 | 6.0 | 0.00 | 0.00 | 0.00 | 79 | 1012.1 |
| 20260508001355 | 51 | 16 | 4.0 | 7.0 | 0.00 | 0.00 | 0.00 | 79 | 1012.1 |
| 20260508000855 | 51 | 15 | 4.0 | 7.0 | 0.00 | 0.00 | 0.00 | 79 | 1012.0 |
| 20260508000357 | 51 | 12 | 5.0 | 7.0 | 0.00 | 0.00 | 0.00 | 78 | 1012.1 |
| 20260507235854 | 51 | 9 | 4.0 | 7.0 | 0.00 | 0.00 | 0.00 | 78 | 1012.1 |
| 20260507235354 | 52 | 9 | 5.0 | 7.0 | 0.00 | 0.00 | 0.00 | 77 | 1012.1 |
| 20260507234858 | 52 | 5 | 4.0 | 6.0 | 0.00 | 0.00 | 0.00 | 77 | 1012.2 |
| 20260507234359 | 52 | 355 | 5.0 | 6.0 | 0.00 | 0.00 | 0.00 | 77 | 1012.3 |
| 20260507233900 | 52 | 355 | 5.0 | 6.0 | 0.00 | 0.00 | 0.00 | 77 | 1012.3 |
| 20260507233358 | 51 | 355 | 4.0 | 7.0 | 0.00 | 0.00 | 0.00 | 77 | 1012.4 |
| 20260507232900 | 52 | 355 | 5.0 | 7.0 | 0.00 | 0.00 | 0.00 | 77 | 1012.4 |
| 20260507232401 | 52 | 355 | 5.0 | 6.0 | 0.00 | 0.00 | 0.00 | 76 | 1012.4 |
| 20260507231902 | 52 | 5 | 4.0 | 6.0 | 0.00 | 0.00 | 0.00 | 76 | 1012.5 |
| 20260507230843 | 52 | 11 | 4.0 | 5.0 | 0.00 | 0.00 | 0.00 | 75 | 1012.6 |
| 20260507230344 | 52 | 11 | 4.0 | 5.0 | 0.00 | 0.00 | 0.00 | 76 | 1012.6 |
| 20260507225844 | 52 | 11 | 4.0 | 4.0 | 0.00 | 0.00 | 0.00 | 76 | 1012.7 |
| 20260507225344 | 52 | 11 | 3.0 | 4.0 | 0.00 | 0.00 | 0.00 | 75 | 1012.7 |
| 20260507224350 | 52 | 11 | 3.0 | 5.0 | 0.00 | 0.00 | 0.00 | 76 | 1012.8 |
| 20260507223849 | 52 | 11 | 3.0 | 5.0 | 0.00 | 0.00 | 0.00 | 77 | 1012.7 |
| 20260507222849 | 52 | 11 | 3.0 | 5.0 | 0.00 | 0.00 | 0.00 | 77 | 1012.6 |
| 20260507222349 | 52 | 11 | 3.0 | 5.0 | 0.00 | 0.00 | 0.00 | 77 | 1012.6 |
| 20260507221850 | 51 | 13 | 4.0 | 5.0 | 0.00 | 0.00 | 0.00 | 77 | 1012.5 |
| 20260507220856 | 51 | 15 | 4.0 | 5.0 | 0.00 | 0.00 | 0.00 | 78 | 1012.5 |
| 20260507220357 | 51 | 19 | 3.0 | 4.0 | 0.00 | 0.00 | 0.00 | 78 | 1012.5 |
| 20260507215402 | 51 | 34 | 2.0 | 3.0 | 0.00 | 0.00 | 0.00 | 77 | 1012.6 |
| 20260507214843 | 51 | 34 | 2.0 | 4.0 | 0.00 | 0.00 | 0.00 | 77 | 1012.6 |
| 20260507214345 | 51 | 34 | 2.0 | 4.0 | 0.00 | 0.00 | 0.00 | 77 | 1012.6 |
| 20260507213350 | 51 | 34 | 1.0 | 2.0 | 0.00 | 0.00 | 0.00 | 77 | 1012.5 |
| 20260507212851 | 51 | 34 | 0.0 | 2.0 | 0.00 | 0.00 | 0.00 | 76 | 1012.4 |
| 20260507212357 | 51 | 34 | 0.0 | 3.0 | 0.00 | 0.00 | 0.00 | 76 | 1012.4 |
| 20260507211900 | 51 | 34 | 1.0 | 3.0 | 0.00 | 0.00 | 0.00 | 75 | 1012.3 |
| 20260507211343 | 52 | 34 | 2.0 | 3.0 | 0.00 | 0.00 | 0.00 | 74 | 1012.2 |
| 20260507210843 | 52 | 34 | 2.0 | 3.0 | 0.00 | 0.00 | 0.00 | 73 | 1012.2 |
| 20260507210346 | 53 | 34 | 2.0 | 3.0 | 0.00 | 0.00 | 0.00 | 74 | 1012.3 |
| 20260507205847 | 52 | 34 | 2.0 | 4.0 | 0.00 | 0.00 | 0.00 | 75 | 1012.1 |
| 20260507205348 | 52 | 34 | 3.0 | 4.0 | 0.00 | 0.00 | 0.00 | 74 | 1012.0 |
| 20260507204357 | 54 | 38 | 0.0 | 0.0 | 0.00 | 0.00 | 0.00 | 72 | 1012.0 |
| 20260507203859 | 54 | 38 | 0.0 | 1.0 | 0.00 | 0.00 | 0.00 | 72 | 1011.9 |
| 20260507202902 | 54 | 38 | 1.0 | 2.0 | 0.00 | 0.00 | 0.00 | 72 | 1011.7 |
| 20260507202401 | 54 | 38 | 0.0 | 2.0 | 0.00 | 0.00 | 0.00 | 73 | 1011.6 |
| 20260507201900 | 54 | 38 | 1.0 | 2.0 | 0.00 | 0.00 | 0.00 | 72 | 1011.4 |
| 20260507200846 | 54 | 38 | 2.0 | 3.0 | 0.00 | 0.00 | 0.00 | 72 | 1011.3 |
| 20260507200350 | 54 | 38 | 2.0 | 3.0 | 0.00 | 0.00 | 0.00 | 71 | 1011.2 |
| 20260507195354 | 55 | 46 | 2.0 | 3.0 | 0.00 | 0.00 | 0.00 | 70 | 1011.0 |
| 20260507194857 | 56 | 46 | 3.0 | 6.0 | 0.00 | 0.00 | 0.00 | 68 | 1010.8 |
| 20260507193859 | 57 | 47 | 5.0 | 6.0 | 0.00 | 0.00 | 0.00 | 66 | 1010.6 |
| 20260507193400 | 57 | 45 | 4.0 | 5.0 | 0.00 | 0.00 | 0.00 | 66 | 1010.5 |
| 20260507192844 | 57 | 45 | 4.0 | 4.0 | 0.00 | 0.00 | 0.00 | 66 | 1010.6 |
| 20260507192344 | 57 | 45 | 3.0 | 5.0 | 0.00 | 0.00 | 0.00 | 66 | 1010.6 |
| 20260507191846 | 57 | 45 | 4.0 | 5.0 | 0.00 | 0.00 | 0.00 | 65 | 1010.5 |
| 20260507190358 | 57 | 44 | 3.0 | 4.0 | 0.00 | 0.00 | 0.00 | 65 | 1010.3 |
| 20260507185858 | 58 | 44 | 2.0 | 5.0 | 0.00 | 0.00 | 0.00 | 64 | 1010.2 |
| 20260507185359 | 58 | 44 | 2.0 | 8.0 | 0.00 | 0.00 | 0.00 | 64 | 1010.0 |
| 20260507184900 | 58 | 44 | 5.0 | 8.0 | 0.00 | 0.00 | 0.00 | 63 | 1009.9 |
| 20260507184400 | 58 | 44 | 4.0 | 8.0 | 0.00 | 0.00 | 0.00 | 64 | 1009.9 |
| 20260507183901 | 58 | 46 | 5.0 | 8.0 | 0.00 | 0.00 | 0.00 | 64 | 1009.9 |
| 20260507183345 | 58 | 39 | 4.0 | 11.0 | 0.00 | 0.00 | 0.00 | 63 | 1009.9 |
| 20260507182846 | 58 | 63 | 5.0 | 12.0 | 0.00 | 0.00 | 0.00 | 63 | 1009.7 |
| 20260507182348 | 58 | 57 | 9.0 | 12.0 | 0.00 | 0.00 | 0.00 | 64 | 1009.6 |
| 20260507181849 | 58 | 69 | 6.0 | 12.0 | 0.00 | 0.00 | 0.00 | 64 | 1009.6 |
| 20260507181351 | 58 | 62 | 8.0 | 12.0 | 0.00 | 0.00 | 0.00 | 62 | 1009.6 |
| 20260507180357 | 59 | 76 | 5.0 | 8.0 | 0.00 | 0.00 | 0.00 | 61 | 1009.6 |
| 20260507175357 | 59 | 53 | 5.0 | 10.0 | 0.00 | 0.00 | 0.00 | 60 | 1009.8 |
| 20260507174843 | 59 | 57 | 7.0 | 11.0 | 0.00 | 0.00 | 0.00 | 60 | 1009.6 |
| 20260507174343 | 60 | 67 | 4.0 | 11.0 | 0.00 | 0.00 | 0.00 | 60 | 1009.6 |
| 20260507173844 | 60 | 73 | 5.0 | 12.0 | 0.00 | 0.00 | 0.00 | 58 | 1009.5 |
| 20260507173347 | 60 | 63 | 6.0 | 13.0 | 0.00 | 0.00 | 0.00 | 58 | 1009.4 |
| 20260507172848 | 60 | 93 | 9.0 | 13.0 | 0.00 | 0.00 | 0.00 | 56 | 1009.5 |
| 20260507172348 | 61 | 57 | 8.0 | 12.0 | 0.00 | 0.00 | 0.00 | 58 | 1009.5 |
| 20260507171850 | 61 | 82 | 6.0 | 11.0 | 0.00 | 0.00 | 0.00 | 56 | 1009.4 |
| 20260507170854 | 61 | 60 | 5.0 | 12.0 | 0.00 | 0.00 | 0.00 | 56 | 1009.3 |
| 20260507170355 | 61 | 58 | 5.0 | 14.0 | 0.00 | 0.00 | 0.00 | 56 | 1009.5 |
| 20260507165856 | 61 | 80 | 9.0 | 14.0 | 0.00 | 0.00 | 0.00 | 57 | 1009.5 |
| 20260507165356 | 60 | 71 | 11.0 | 17.0 | 0.00 | 0.00 | 0.00 | 59 | 1009.5 |
| 20260507164843 | 61 | 66 | 7.0 | 15.0 | 0.00 | 0.00 | 0.00 | 59 | 1009.5 |
| 20260507164346 | 61 | 57 | 6.0 | 17.0 | 0.00 | 0.00 | 0.00 | 59 | 1009.5 |
| 20260507163847 | 60 | 51 | 8.0 | 17.0 | 0.00 | 0.00 | 0.00 | 59 | 1009.5 |
| 20260507163348 | 60 | 51 | 8.0 | 14.0 | 0.00 | 0.00 | 0.00 | 60 | 1009.6 |
| 20260507161858 | 60 | 360 | 10.0 | 17.0 | 0.00 | 0.00 | 0.00 | 61 | 1009.6 |
| 20260507161340 | 60 | 43 | 8.0 | 17.0 | 0.00 | 0.00 | 0.00 | 61 | 1009.6 |
| 20260507160846 | 60 | 74 | 7.0 | 15.0 | 0.00 | 0.00 | 0.00 | 63 | 1009.6 |
| 20260507160350 | 60 | 51 | 8.0 | 15.0 | 0.00 | 0.00 | 0.00 | 62 | 1009.3 |
| 20260507155850 | 60 | 40 | 9.0 | 14.0 | 0.00 | 0.00 | 0.00 | 62 | 1009.3 |
| 20260507154857 | 60 | 57 | 11.0 | 15.0 | 0.00 | 0.00 | 0.00 | 64 | 1009.1 |
| 20260507154357 | 59 | 60 | 10.0 | 16.0 | 0.00 | 0.00 | 0.00 | 64 | 1009.1 |
| 20260507153859 | 59 | 60 | 11.0 | 17.0 | 0.00 | 0.00 | 0.00 | 66 | 1009.2 |
| 20260507153358 | 59 | 58 | 8.0 | 18.0 | 0.00 | 0.00 | 0.00 | 65 | 1009.2 |
| 20260507152856 | 59 | 61 | 9.0 | 18.0 | 0.00 | 0.00 | 0.00 | 65 | 1009.3 |
| 20260507152357 | 59 | 49 | 8.0 | 15.0 | 0.00 | 0.00 | 0.00 | 67 | 1009.3 |
| 20260507151859 | 58 | 53 | 9.0 | 15.0 | 0.00 | 0.00 | 0.00 | 66 | 1009.3 |
| 20260507151358 | 59 | 51 | 9.0 | 17.0 | 0.00 | 0.00 | 0.00 | 68 | 1009.4 |
| 20260507150900 | 59 | 51 | 11.0 | 17.0 | 0.00 | 0.00 | 0.00 | 69 | 1009.5 |
| 20260507145846 | 58 | 47 | 10.0 | 14.0 | 0.00 | 0.00 | 0.00 | 70 | 1009.7 |
| 20260507144850 | 59 | 66 | 11.0 | 16.0 | 0.00 | 0.00 | 0.00 | 68 | 1009.6 |
| 20260507144351 | 59 | 22 | 12.0 | 16.0 | 0.00 | 0.00 | 0.00 | 67 | 1009.6 |
| 20260507143852 | 59 | 71 | 9.0 | 14.0 | 0.00 | 0.00 | 0.00 | 66 | 1009.6 |
| 20260507143356 | 59 | 34 | 8.0 | 16.0 | 0.00 | 0.00 | 0.00 | 66 | 1010.6 |
| 20260507142857 | 59 | 97 | 13.0 | 16.0 | 0.00 | 0.00 | 0.00 | 63 | 1010.7 |
| 20260507142400 | 59 | 64 | 9.0 | 19.0 | 0.00 | 0.00 | 0.00 | 66 | 1010.6 |
| 20260507141901 | 58 | 71 | 14.0 | 20.0 | 0.00 | 0.00 | 0.00 | 64 | 1010.5 |
| 20260507141342 | 58 | 98 | 15.0 | 20.0 | 0.00 | 0.00 | 0.00 | 67 | 1010.5 |
| 20260507140848 | 58 | 59 | 10.0 | 20.0 | 0.00 | 0.00 | 0.00 | 72 | 1010.5 |
| 20260507140351 | 58 | 74 | 13.0 | 20.0 | 0.00 | 0.00 | 0.00 | 72 | 1010.4 |
| 20260507135850 | 59 | 132 | 15.0 | 23.0 | 0.00 | 0.00 | 0.00 | 71 | 1010.6 |
| 20260507135350 | 58 | 81 | 17.0 | 23.0 | 0.00 | 0.00 | 0.00 | 70 | 1010.5 |
| 20260507134355 | 60 | 83 | 15.0 | 24.0 | 0.00 | 0.00 | 0.00 | 68 | 1010.0 |
| 20260507133359 | 61 | 98 | 13.0 | 17.0 | 0.00 | 0.00 | 0.00 | 62 | 1010.1 |
| 20260507132900 | 61 | 74 | 11.0 | 17.0 | 0.00 | 0.00 | 0.00 | 65 | 1010.0 |
| 20260507132401 | 62 | 99 | 13.0 | 16.0 | 0.00 | 0.00 | 0.00 | 60 | 1010.0 |
| 20260507131845 | 63 | 94 | 9.0 | 13.0 | 0.00 | 0.00 | 0.00 | 54 | 1009.8 |
| 20260507131345 | 64 | 73 | 5.0 | 11.0 | 0.00 | 0.00 | 0.00 | 53 | 1009.9 |
| 20260507130847 | 64 | 165 | 4.0 | 8.0 | 0.00 | 0.00 | 0.00 | 52 | 1009.9 |
| 20260507130347 | 65 | 202 | 2.0 | 8.0 | 0.00 | 0.00 | 0.00 | 51 | 1009.9 |
| 20260507125853 | 65 | 185 | 3.0 | 6.0 | 0.00 | 0.00 | 0.00 | 52 | 1009.8 |
| 20260507125353 | 65 | 209 | 0.0 | 3.0 | 0.00 | 0.00 | 0.00 | 52 | 1009.8 |
| 20260507124856 | 65 | 209 | 0.0 | 6.0 | 0.00 | 0.00 | 0.00 | 52 | 1009.7 |
| 20260507062402 | 56 | 36 | 6.0 | 13.0 | 0.00 | 0.00 | 0.00 | 70 | 1010.8 |
| 20260507061902 | 56 | 36 | 6.0 | 13.0 | 0.00 | 0.00 | 0.00 | 70 | 1010.7 |
| 20260507061344 | 56 | 40 | 8.0 | 11.0 | 0.00 | 0.00 | 0.00 | 70 | 1010.7 |
| 20260507060843 | 56 | 47 | 6.0 | 8.0 | 0.00 | 0.00 | 0.00 | 70 | 1010.7 |
| 20260507060348 | 56 | 46 | 5.0 | 8.0 | 0.00 | 0.00 | 0.00 | 70 | 1010.6 |
| 20260507055851 | 56 | 55 | 5.0 | 8.0 | 0.00 | 0.00 | 0.00 | 70 | 1010.6 |
| 20260507054856 | 56 | 32 | 7.0 | 10.0 | 0.00 | 0.00 | 0.00 | 70 | 1010.5 |